Regional Weather Roundup
Issued by NWS

Home | Current Version | Previous Version | Text Only | Print | Product List | Glossary Off
Versions: 1 2 3 4 5 6 7 8 9 10 11 12 13 14 15 16 17 18 19 20 21 22 23 24 25 26 27 28 29 30 31 32 33 34 35 36 37 38 39 40 41 42 43 44 45 46 47 48 49 50

000
ASUS43 KLOT 211406
RWRIL

ILLINOIS REGIONAL WEATHER ROUNDUP
NATIONAL WEATHER SERVICE CHICAGO/ROMEOVILLE IL
900 AM CDT MON APR 21 2014

NOTE: "FAIR" INDICATES FEW OR NO CLOUDS BELOW 12,000 FEET WITH NO
SIGNIFICANT WEATHER AND/OR OBSTRUCTIONS TO VISIBILITY.

* THESE STATIONS ARE NOT UNDER NWS QUALITY CONTROL. THEY ALSO MAY NOT
  REPORT WEATHER SUCH AS PRECIPITATION OR FOG.

ILZ001-002-007-009-015-016-024-211500-
NORTHWEST ILLINOIS

CITY           SKY/WX    TMP DP  RH WIND       PRES   REMARKS
MOLINE         CLOUDY    64  51  62 SW8       29.93F
STERLING*      CLOUDY    64  50  59 W10       29.93S
SAVANNA*       CLOUDY    63  48  58 CALM      29.93S
$$

ILZ003-004-008-010-011-017-018-211500-
NORTH CENTRAL ILLINOIS

CITY           SKY/WX    TMP DP  RH WIND       PRES   REMARKS
ROCKFORD       CLOUDY    64  46  52 SW6       29.93F
FREEPORT*      CLOUDY    64  50  61 S8        29.93F
DE KALB*       CLOUDY    59  45  59 S7        29.93F
$$

ILZ005-006-012>014-019>023-211500-
NORTHEAST ILLINOIS

CITY           SKY/WX    TMP DP  RH WIND       PRES   REMARKS
CHICAGO-OHARE  CLOUDY    65  42  43 SW7       29.93F
CHICAGO-MIDWAY CLOUDY    65  44  46 SW10      29.94F
AURORA         CLOUDY    63  46  54 S9        29.93F
LANSING*       CLOUDY    64  44  47 SW10      29.96S
JOLIET*        CLOUDY    62  46  54 S6        29.95F
WAUKEGAN       MOSUNNY   67  45  45 SW10      29.91F
DUPAGE AIRPORT CLOUDY    64  46  52 S8        29.93F
KANKAKEE*      CLOUDY    65  48  53 S9        29.97S
WHEELING       PTSUNNY   65  44  46 S6        29.93F
MORRIS*        CLOUDY    64  42  45 S7        29.94F
NORTHERLY ISL    N/A     66  41  40 S8          N/A
$$

LMZ740>746-211500-
SOUTHERN LAKE MICHIGAN

STATION/POSITION SKY/WX   TEMP    WIND        PRES    VSBY  WAVE
                          AIR SEA DIR/SP/G                  HT/PER
                          (F)     (DEG/KT/KT) (MB)    (MI)  (FT/S)
WAUKEGAN HARBOR            53     180/  9/ 10 1014.6F
HARRISON CRIB              61     180/ 13/ 14   N/A
BURNHAM HARBOR             66     250/  4/ 10   N/A
CALUMET HARBOR             64     180/  9/ 12 1014.4F
MICHIGAN CITY              64     170/  9/ 12   N/A
$$

ILZ025>027-034>036-040-047-049-050-058-095>099-211500-
WEST-CENTRAL ILLINOIS

CITY           SKY/WX    TMP DP  RH WIND       PRES   REMARKS
QUINCY         CLOUDY    65  52  62 SW8       29.98F
MACOMB*        CLOUDY    65  51  59 SW8       30.00S
PITTSFIELD*    CLOUDY    68  52  55 SW5       30.00S
$$

ILZ028>032-037-038-041>044-048-051>054-059>061-211500-
CENTRAL ILLINOIS

CITY           SKY/WX    TMP DP  RH WIND       PRES   REMARKS
PONTIAC        CLOUDY    66  48  52 SW8       29.96S
BLOOMINGTON    PTSUNNY   65  47  52 SW9       29.99S
DECATUR        PTSUNNY   67  48  50 SW9       30.00S
PEORIA         CLOUDY    64  48  56 SW7       29.97S
LACON*         CLOUDY    64  49  58 SW7       29.95S
SPRINGFIELD    CLOUDY    68  47  46 SW6       29.99S
TAYLORVILLE    CLOUDY    64  46  52 SW8       30.00S
$$

ILZ033-039-045-046-055>057-062-063-211500-
EAST-CENTRAL ILLINOIS

CITY           SKY/WX    TMP DP  RH WIND       PRES   REMARKS
CHAMPAIGN      MOSUNNY   69  47  45 SW13      29.99F
RANTOUL*       CLOUDY    68  45  43 SW12      29.99F
MATTOON        MOSUNNY   64  47  53 S14       30.01S
PARIS*         PTSUNNY   66  47  49 SW10      30.01F
$$

ILZ079-100>102-211500-
SOUTHWEST ILLINOIS

CITY           SKY/WX    TMP DP  RH WIND       PRES   REMARKS
ALTON          LGT RAIN  63  54  72 S17       30.03R
BELLEVILLE     LGT RAIN  63  56  79 W8        30.01F
CAHOKIA*       LGT RAIN  65  53  65 W3        30.02S
SPARTA*        CLOUDY    64  50  59 CALM      30.02F
$$

ILZ064>066-069>071-074>076-080>082-084>086-088>090-092>094-211500-
SOUTH-CENTRAL ILLINOIS

CITY           SKY/WX    TMP DP  RH WIND       PRES   REMARKS
CARBONDALE     CLOUDY    64  51  62 S5        30.03F
CAIRO*         CLOUDY    69  52  56 SW6       30.06F
MARION         CLOUDY    66  54  63 S9        30.05F
MT. VERNON     CLOUDY    63  46  55 SW3       30.04S
SALEM*         LGT RAIN  64  51  63 N8        30.00F
METROPOLIS*    CLOUDY    67  50  54 CALM      30.06S
$$

ILZ067-068-072-073-078-083-087-091-211500-
SOUTHEAST ILLINOIS

CITY           SKY/WX    TMP DP  RH WIND       PRES   REMARKS
FAIRFIELD*     PTSUNNY   64  54  68 S6        30.03F
HARRISBURG*    PTSUNNY   65  53  65 CALM      30.04F
ROBINSON*      PTSUNNY   68  51  53 S7        30.04S
CARMI*         PTSUNNY   67  55  66 S7        30.04F
$$

ABBREVIATIONS USED IN REMARKS
   TC - TEMPERATURE IN CELSIUS
  WCI - WIND CHILL INDEX
   HX - HEAT INDEX
  VSB - VISIBILITY
$$




USA.gov is the U.S. government's official web portal to all federal, state and local government web resources and services.